This is the latest recevied weather packets stored in our database for station/object OE6ACM-10. If no packets are shown the sender has not sent any weather packets the latest 10 day(s).
| Time | Temp. | Humidity | Pressure | Rain* | Wind** | Luminosity | Snow |
|---|---|---|---|---|---|---|---|
| 1777289017 | 30° C | 40% | 928.3 hPa | - | - | - | - |
| 1777288717 | 30° C | 43% | 928.4 hPa | - | - | - | - |
| 1777288417 | 29.44° C | 44% | 928.4 hPa | - | - | - | - |
| 1777288117 | 29.44° C | 43% | 928.5 hPa | - | - | - | - |
| 1777287817 | 29.44° C | 47% | 928.5 hPa | - | - | - | - |
| 1777287517 | 29.44° C | 49% | 928.5 hPa | - | - | - | - |
| 1777287217 | 29.44° C | 50% | 928.6 hPa | - | - | - | - |
| 1777286917 | 29.44° C | 45% | 928.6 hPa | - | - | - | - |
| 1777286617 | 29.44° C | 53% | 928.6 hPa | - | - | - | - |
| 1777286317 | 29.44° C | 49% | 928.7 hPa | - | - | - | - |
| 1777286017 | 28.89° C | 50% | 928.8 hPa | - | - | - | - |
| 1777285717 | 28.33° C | 50% | 928.9 hPa | - | - | - | - |
| 1777285417 | 28.33° C | 52% | 929 hPa | - | - | - | - |
| 1777285117 | 28.89° C | 57% | 929 hPa | - | - | - | - |
| 1777284817 | 27.78° C | 56% | 929.1 hPa | - | - | - | - |
| 1777284517 | 27.78° C | 54% | 929.2 hPa | - | - | - | - |
| 1777284217 | 28.33° C | 55% | 929.3 hPa | - | - | - | - |
| 1777283917 | 27.78° C | 58% | 929.3 hPa | - | - | - | - |
| 1777283617 | 27.78° C | 69% | 929.3 hPa | - | - | - | - |
| 1777283317 | 27.78° C | 67% | 929.4 hPa | - | - | - | - |
| 1777283017 | 27.22° C | 72% | 929.5 hPa | - | - | - | - |
| 1777282717 | 26.67° C | 72% | 929.6 hPa | - | - | - | - |
| 1777282417 | 26.67° C | 76% | 929.6 hPa | - | - | - | - |
| 1777282117 | 26.67° C | 76% | 929.7 hPa | - | - | - | - |
| 1777281817 | 26.67° C | 82% | 929.8 hPa | - | - | - | - |
* Rain since midnight (hover to see other rain measurements)
** Current wind speed in m/s (hover to see current wind gust speed)